Holyoke AP, Holyoke, CO, CO

11:02 AM MDT on June 29, 2017 (GMT -0600)
Holyoke Municipal

Weather History for KHEQ - February, 2014

Change the Weather History Date:

Sunday, February 2, 2014

  Actual Average Record
Temperature  
Mean Temperature 14 °F -  
Max Temperature 33 °F 40 °F 53 °F (2015)
Min Temperature -5 °F 11 °F -5 °F (2014)
Degree Days  
Heating Degree Days 51    
Moisture  
Dew Point 3 °F    
Average Humidity 75    
Maximum Humidity 86    
Minimum Humidity 59    
Precipitation  
Precipitation 0.00 in - - ()
Sea Level Pressure  
Sea Level Pressure 30.08 in    
Wind  
Wind Speed 6 mph (WSW)    
Max Wind Speed 8 mph    
Max Gust Speed -    
Visibility 9 miles    
Events      
Averages and records for this station are not official NWS values.
T = Trace of Precipitation, MM = Missing Value Source: NWS Daily Summary

Daily Weather History Graph

Daily Weather History Graph

Search for Another Location

Airport or City:

Trip Planner

Search our weather history database for the weather conditions in past years. The results will help you decide how hot, cold, wet, or windy it might be!

Date:

Astronomy

Feb. 02, 2014 Rise Set
Actual Time 6:57 AM MST 5:08 PM MST
Civil Twilight 6:28 AM MST 5:37 PM MST
Nautical Twilight 5:56 AM MST 6:09 PM MST
Astronomical Twilight 5:24 AM MST 6:41 PM MST
Moon 8:24 AM MST (2/2) 8:56 PM MST (2/2)
Length of Visible Light 11h 08m
Length of Day
10h 10m
Waxing Crescent, 12% of the Moon is Illuminated
Feb 2
Waxing Crescent
Feb 6
First Quarter
Feb 14
Full
Feb 22
Last Quarter
Mar 1
New

Hourly Weather History & Observations

Time (MST) Temp. Windchill Dew Point Humidity Pressure Visibility Wind Dir Wind Speed Gust Speed Precip Events Conditions
12:15 AM -0.4 °F -12.0 °F -5.8 °F 78% 30.15 in 10.0 mi WSW 5.8 mph - N/A   Clear
12:35 AM -4.0 °F -19.0 °F -9.4 °F 78% 30.14 in 10.0 mi West 8.1 mph - N/A   Clear
12:55 AM -0.4 °F -13.4 °F -5.8 °F 78% 30.14 in 10.0 mi WSW 6.9 mph - N/A   Clear
1:15 AM -0.4 °F -13.4 °F -5.8 °F 78% 30.14 in 10.0 mi WSW 6.9 mph - N/A   Clear
1:35 AM -0.4 °F -13.4 °F -5.8 °F 78% 30.14 in 10.0 mi West 6.9 mph - N/A   Scattered Clouds
1:55 AM -4.0 °F -19.0 °F -9.4 °F 78% 30.14 in 10.0 mi West 8.1 mph - N/A   Clear
2:15 AM -4.0 °F -19.0 °F -9.4 °F 78% 30.13 in 10.0 mi WSW 8.1 mph - N/A   Clear
2:35 AM -4.0 °F -17.8 °F -9.4 °F 78% 30.13 in 10.0 mi West 6.9 mph - N/A   Clear
2:55 AM -0.4 °F -12.0 °F -5.8 °F 78% 30.13 in 10.0 mi West 5.8 mph - N/A   Clear
3:15 AM -4.0 °F -16.3 °F -7.6 °F 85% 30.13 in 10.0 mi SW 5.8 mph - N/A   Clear
3:35 AM -4.0 °F -19.0 °F -9.4 °F 78% 30.12 in 10.0 mi WSW 8.1 mph - N/A   Clear
3:55 AM -4.0 °F -16.3 °F -9.4 °F 78% 30.11 in 10.0 mi WSW 5.8 mph - N/A   Clear
4:15 AM -4.0 °F -14.6 °F -9.4 °F 78% 30.11 in 10.0 mi SW 4.6 mph - N/A   Clear
4:35 AM -4.0 °F -17.8 °F -9.4 °F 78% 30.11 in 10.0 mi SW 6.9 mph - N/A   Clear
4:55 AM -4.0 °F -16.3 °F -7.6 °F 85% 30.10 in 10.0 mi SW 5.8 mph - N/A   Clear
5:15 AM -4.0 °F -19.0 °F -9.4 °F 78% 30.10 in 10.0 mi WSW 8.1 mph - N/A   Clear
5:35 AM -4.0 °F -16.3 °F -9.4 °F 78% 30.10 in 10.0 mi WSW 5.8 mph - N/A   Clear
5:55 AM -2.2 °F -15.6 °F -7.6 °F 78% 30.10 in 10.0 mi WSW 6.9 mph - N/A   Clear
6:15 AM -4.0 °F -19.0 °F -9.4 °F 78% 30.10 in 10.0 mi WSW 8.1 mph - N/A   Clear
6:35 AM -5.8 °F -18.4 °F -11.2 °F 77% 30.10 in 10.0 mi WSW 5.8 mph - N/A   Clear
6:55 AM -5.8 °F -19.9 °F -13.0 °F 71% 30.10 in 10.0 mi SW 6.9 mph - N/A   Clear
7:15 AM -2.2 °F -14.2 °F -7.6 °F 78% 30.10 in 10.0 mi SW 5.8 mph - N/A   Clear
7:35 AM -0.4 °F -10.4 °F -5.8 °F 78% 30.09 in 10.0 mi SW 4.6 mph - N/A   Clear
7:50 AM 1.4 °F -12.5 °F -4.0 °F 78% 30.10 in 10.0 mi SW 8.1 mph - N/A   Clear
8:15 AM 8.6 °F -3.7 °F 3.2 °F 79% 30.10 in 10.0 mi SSW 8.1 mph - N/A   Clear
8:35 AM 12.2 °F 2.9 °F 8.6 °F 85% 30.10 in 10.0 mi SW 5.8 mph - N/A   Clear
8:55 AM 14.0 °F 5.1 °F 10.4 °F 86% 30.10 in 10.0 mi SW 5.8 mph - N/A   Clear
9:15 AM 12.2 °F 0.7 °F 8.6 °F 85% 30.11 in 10.0 mi WSW 8.1 mph - N/A   Clear
9:30 AM 14.0 °F 6.5 °F 10.4 °F 86% 30.11 in 10.0 mi SW 4.6 mph - N/A   Clear
9:55 AM 14.0 °F 2.9 °F 8.6 °F 79% 30.11 in 10.0 mi SW 8.1 mph - N/A   Clear
10:15 AM 19.4 °F 10.4 °F 10.4 °F 68% 30.11 in 10.0 mi SSW 6.9 mph - N/A   Clear
10:35 AM 19.4 °F 9.5 °F 10.4 °F 68% 30.11 in 10.0 mi SW 8.1 mph - N/A   Clear
10:55 AM 21.2 °F 12.6 °F 10.4 °F 63% 30.11 in 10.0 mi WSW 6.9 mph - N/A   Clear
11:15 AM 21.2 °F 13.6 °F 12.2 °F 68% 30.10 in 10.0 mi WSW 5.8 mph - N/A   Clear
11:35 AM 24.8 °F 17.9 °F 14.0 °F 64% 30.09 in 10.0 mi SW 5.8 mph - N/A   Clear
11:55 AM 24.8 °F 19.1 °F 12.2 °F 59% 30.09 in 10.0 mi SW 4.6 mph - N/A   Clear
12:15 PM 26.6 °F 20.0 °F 14.0 °F 59% 30.08 in 10.0 mi WSW 5.8 mph - N/A   Clear
12:35 PM 26.6 °F 22.6 °F 15.8 °F 64% 30.07 in 10.0 mi WSW 3.5 mph - N/A   Clear
12:55 PM 30.2 °F 25.4 °F 17.6 °F 60% 30.06 in 10.0 mi WSW 4.6 mph - N/A   Clear
1:15 PM 32.0 °F 27.5 °F 19.4 °F 60% 30.05 in 10.0 mi SW 4.6 mph - N/A   Clear
1:35 PM 32.0 °F 28.7 °F 19.4 °F 60% 30.05 in 10.0 mi West 3.5 mph - N/A   Clear
1:55 PM 33.8 °F 30.8 °F 21.2 °F 60% 30.04 in 10.0 mi WSW 3.5 mph - N/A   Clear
2:15 PM 33.8 °F 30.8 °F 21.2 °F 60% 30.04 in 10.0 mi South 3.5 mph - N/A   Clear
2:35 PM 33.8 °F 29.6 °F 21.2 °F 60% 30.04 in 10.0 mi SSW 4.6 mph - N/A   Clear
2:55 PM 33.8 °F 28.6 °F 21.2 °F 60% 30.04 in 10.0 mi SSW 5.8 mph - N/A   Clear
3:15 PM 33.8 °F 30.8 °F 21.2 °F 60% 30.04 in 10.0 mi SSW 3.5 mph - N/A   Clear
3:35 PM 32.0 °F 28.7 °F 19.4 °F 60% 30.04 in 10.0 mi WSW 3.5 mph - N/A   Clear
3:55 PM 30.2 °F 25.4 °F 19.4 °F 64% 30.04 in 10.0 mi SW 4.6 mph - N/A   Clear
4:15 PM 26.6 °F 21.2 °F 17.6 °F 69% 30.04 in 10.0 mi SW 4.6 mph - N/A   Clear
4:35 PM 24.8 °F 19.1 °F 17.6 °F 74% 30.04 in 10.0 mi SW 4.6 mph - N/A   Clear
4:55 PM 19.4 °F 11.5 °F 14.0 °F 80% 30.04 in 10.0 mi SSW 5.8 mph - N/A   Clear
5:15 PM 19.4 °F 9.5 °F 14.0 °F 80% 30.04 in 10.0 mi SW 8.1 mph - N/A   Clear
5:35 PM 14.0 °F 3.9 °F 10.4 °F 86% 30.05 in 10.0 mi WSW 6.9 mph - N/A   Clear
5:55 PM 14.0 °F 5.1 °F 10.4 °F 86% 30.04 in 10.0 mi WSW 5.8 mph - N/A   Clear
6:15 PM 12.2 °F 1.7 °F 8.6 °F 85% 30.04 in 7.0 mi WSW 6.9 mph - N/A   Clear
6:35 PM 10.4 °F -0.4 °F 6.8 °F 85% 30.04 in 7.0 mi SW 6.9 mph - N/A   Clear
6:55 PM 8.6 °F 0.1 °F 5.0 °F 85% 30.04 in 7.0 mi SW 4.6 mph - N/A   Clear
7:15 PM 5.0 °F -5.6 °F 1.4 °F 85% 30.04 in 3.0 mi SW 5.8 mph - N/A   Clear
7:35 PM 5.0 °F -5.6 °F 1.4 °F 85% 30.04 in 5.0 mi SW 5.8 mph - N/A   Clear
7:55 PM 5.0 °F -2.1 °F -0.4 °F 78% 30.03 in 5.0 mi SSW 3.5 mph - N/A   Haze
8:15 PM 5.0 °F -5.6 °F 1.4 °F 85% 30.03 in 4.0 mi WSW 5.8 mph - N/A   Haze
8:35 PM 5.0 °F -4.1 °F 1.4 °F 85% 30.03 in 4.0 mi WSW 4.6 mph - N/A   Haze
8:55 PM 3.2 °F -7.8 °F -4.0 °F 72% 30.04 in 5.0 mi WSW 5.8 mph - N/A   Haze
9:15 PM 5.0 °F -4.1 °F -0.4 °F 78% 30.04 in 5.0 mi West 4.6 mph - N/A   Haze
9:35 PM 1.4 °F -8.3 °F -4.0 °F 78% 30.04 in 7.0 mi WSW 4.6 mph - N/A   Clear
9:55 PM 1.4 °F -8.3 °F -4.0 °F 78% 30.04 in 7.0 mi WSW 4.6 mph - N/A   Clear
10:15 PM 1.4 °F -9.9 °F -4.0 °F 78% 30.04 in 7.0 mi West 5.8 mph - N/A   Clear
10:35 PM 1.4 °F -8.3 °F -4.0 °F 78% 30.03 in 5.0 mi West 4.6 mph - N/A   Haze
10:55 PM -0.4 °F -10.4 °F -5.8 °F 78% 30.01 in 4.0 mi West 4.6 mph - N/A   Haze
11:15 PM -0.4 °F -8.3 °F -5.8 °F 78% 30.01 in 1.0 mi West 3.5 mph - N/A   Haze
11:35 PM -0.4 °F -8.3 °F -5.8 °F 78% 30.01 in 5.0 mi West 3.5 mph - N/A   Haze
11:55 PM -0.4 °F -10.4 °F -5.8 °F 78% 30.00 in 0.2 mi West 4.6 mph - N/A   Haze